| time (UTC) | temp F | wind direction | speed MPH | gust MPH | rain 1hr in | rain 24hr in | rain mn in | humidity % | barometer mb |
| 20260507113051 | 54 | 12 | 1.0 | 6.0 | 0.00 | 0.05 | 0.00 | 77 | 1015.6 |
| 20260507111550 | 54 | 348 | 2.0 | 8.0 | 0.00 | 0.05 | 0.00 | 79 | 1015.5 |
| 20260507110053 | 53 | 31 | 2.0 | 8.0 | 0.00 | 0.05 | 0.00 | 79 | 1015.6 |
| 20260507104553 | 53 | 333 | 3.0 | 8.0 | 0.00 | 0.05 | 0.00 | 78 | 1015.6 |
| 20260507103048 | 52 | 5 | 2.0 | 6.0 | 0.00 | 0.05 | 0.00 | 79 | 1015.4 |
| 20260507101602 | 52 | 26 | 3.0 | 8.0 | 0.00 | 0.05 | 0.00 | 80 | 1015.5 |
| 20260507100053 | 52 | 0 | 2.0 | 7.0 | 0.00 | 0.05 | 0.00 | 81 | 1015.4 |
| 20260507094556 | 51 | 328 | 3.0 | 8.0 | 0.00 | 0.05 | 0.00 | 81 | 1015.4 |
| 20260507093048 | 51 | 308 | 4.0 | 9.0 | 0.00 | 0.05 | 0.00 | 81 | 1015.2 |
| 20260507091600 | 52 | 292 | 3.0 | 7.0 | 0.00 | 0.05 | 0.00 | 81 | 1015.0 |
| 20260507090107 | 51 | 43 | 3.0 | 7.0 | 0.00 | 0.05 | 0.00 | 83 | 1014.9 |
| 20260507084547 | 51 | 305 | 3.0 | 8.0 | 0.00 | 0.05 | 0.00 | 83 | 1014.9 |
| 20260507083046 | 51 | 325 | 1.0 | 5.0 | 0.00 | 0.05 | 0.00 | 84 | 1014.8 |
| 20260507081552 | 51 | 9 | 1.0 | 9.0 | 0.00 | 0.05 | 0.00 | 83 | 1014.7 |
| 20260507080049 | 50 | 292 | 4.0 | 10.0 | 0.00 | 0.05 | 0.00 | 82 | 1014.5 |
| 20260507074550 | 51 | 323 | 2.0 | 8.0 | 0.00 | 0.05 | 0.00 | 84 | 1014.4 |
| 20260507073058 | 51 | 331 | 4.0 | 8.0 | 0.00 | 0.05 | 0.00 | 84 | 1014.1 |
| 20260507071546 | 50 | 334 | 1.0 | 3.0 | 0.00 | 0.05 | 0.00 | 85 | 1014.0 |
| 20260507070119 | 50 | 290 | 2.0 | 4.0 | 0.00 | 0.05 | 0.00 | 85 | 1013.8 |
| 20260507064548 | 50 | 314 | 0.0 | 6.0 | 0.00 | 0.05 | 0.00 | 85 | 1013.8 |
| 20260507063042 | 50 | 0 | 0.0 | 3.0 | 0.00 | 0.05 | 0.00 | 86 | 1013.6 |
| 20260507061546 | 50 | 339 | 1.0 | 5.0 | 0.00 | 0.05 | 0.00 | 86 | 1013.4 |
| 20260507060050 | 50 | 0 | 1.0 | 4.0 | 0.00 | 0.05 | 0.00 | 86 | 1013.2 |
| 20260507054551 | 50 | 302 | 2.0 | 6.0 | 0.00 | 0.05 | 0.00 | 86 | 1013.1 |
| 20260507053045 | 50 | 290 | 2.0 | 7.0 | 0.00 | 0.05 | 0.00 | 85 | 1013.0 |
| 20260507051544 | 50 | 301 | 6.0 | 9.0 | 0.00 | 0.05 | 0.00 | 86 | 1012.8 |
| 20260507050050 | 50 | 287 | 4.0 | 7.0 | 0.00 | 0.05 | 0.00 | 87 | 1012.6 |
| 20260507044549 | 49 | 289 | 2.0 | 4.0 | 0.00 | 0.05 | 0.00 | 87 | 1012.4 |
| 20260507043052 | 49 | 299 | 2.0 | 4.0 | 0.00 | 0.05 | 0.00 | 87 | 1012.2 |
| 20260507041545 | 49 | 306 | 0.0 | 6.0 | 0.00 | 0.05 | 0.00 | 87 | 1012.0 |
| 20260507040050 | 49 | 293 | 4.0 | 8.0 | 0.00 | 0.05 | 0.00 | 87 | 1011.9 |
| 20260507034547 | 49 | 298 | 4.0 | 8.0 | 0.00 | 0.05 | 0.00 | 87 | 1011.9 |
| 20260507033049 | 49 | 302 | 3.0 | 7.0 | 0.00 | 0.05 | 0.00 | 87 | 1011.9 |
| 20260507031548 | 49 | 306 | 2.0 | 4.0 | 0.00 | 0.05 | 0.00 | 87 | 1011.6 |
| 20260507030105 | 49 | 321 | 1.0 | 5.0 | 0.00 | 0.05 | 0.00 | 87 | 1011.5 |
| 20260507024551 | 49 | 321 | 1.0 | 8.0 | 0.00 | 0.05 | 0.00 | 87 | 1011.5 |
| 20260507023052 | 49 | 315 | 4.0 | 9.0 | 0.00 | 0.05 | 0.00 | 87 | 1011.4 |
| 20260507021551 | 50 | 315 | 2.0 | 9.0 | 0.00 | 0.05 | 0.00 | 86 | 1011.2 |
| 20260507020052 | 50 | 325 | 3.0 | 10.0 | 0.00 | 0.05 | 0.00 | 86 | 1011.1 |
| 20260507014608 | 50 | 313 | 2.0 | 7.0 | 0.00 | 0.05 | 0.00 | 86 | 1011.1 |
| 20260507013052 | 50 | 307 | 1.0 | 5.0 | 0.00 | 0.05 | 0.00 | 86 | 1010.9 |
| 20260507011546 | 50 | 327 | 2.0 | 7.0 | 0.00 | 0.05 | 0.00 | 86 | 1011.0 |
| 20260507010050 | 50 | 360 | 1.0 | 6.0 | 0.00 | 0.05 | 0.00 | 86 | 1010.9 |
| 20260507004547 | 50 | 320 | 1.0 | 9.0 | 0.00 | 0.05 | 0.00 | 86 | 1010.9 |
| 20260507003047 | 50 | 0 | 1.0 | 10.0 | 0.00 | 0.05 | 0.00 | 86 | 1010.8 |
| 20260507001552 | 50 | 306 | 2.0 | 8.0 | 0.00 | 0.05 | 0.00 | 86 | 1010.7 |
| 20260507000048 | 50 | 311 | 1.0 | 5.0 | 0.00 | 0.05 | 0.00 | 86 | 1010.9 |
| 20260506234545 | 50 | 0 | 0.0 | 3.0 | 0.00 | 0.05 | 0.00 | 86 | 1010.8 |
| 20260506233047 | 50 | 0 | 0.0 | 4.0 | 0.00 | 0.05 | 0.00 | 86 | 1010.7 |
| 20260506231544 | 50 | 318 | 2.0 | 5.0 | 0.00 | 0.05 | 0.00 | 86 | 1010.6 |
| 20260506230057 | 51 | 355 | 0.0 | 6.0 | 0.00 | 0.05 | 0.00 | 87 | 1010.6 |
| 20260506224550 | 51 | 341 | 2.0 | 8.0 | 0.00 | 0.05 | 0.00 | 87 | 1010.4 |
| 20260506223046 | 51 | 342 | 3.0 | 11.0 | 0.00 | 0.05 | 0.00 | 86 | 1010.3 |
| 20260506221548 | 51 | 348 | 3.0 | 8.0 | 0.00 | 0.05 | 0.00 | 87 | 1010.1 |
| 20260506220047 | 51 | 312 | 3.0 | 10.0 | 0.00 | 0.05 | 0.00 | 87 | 1010.1 |
| 20260506214546 | 52 | 331 | 3.0 | 9.0 | 0.00 | 0.11 | 0.05 | 87 | 1009.9 |
| 20260506213053 | 52 | 331 | 1.0 | 5.0 | 0.00 | 0.11 | 0.05 | 87 | 1009.9 |
| 20260506211547 | 52 | 318 | 3.0 | 9.0 | 0.00 | 0.11 | 0.05 | 87 | 1009.6 |
| 20260506210050 | 52 | 309 | 4.0 | 11.0 | 0.00 | 0.11 | 0.05 | 86 | 1009.6 |
| 20260506204545 | 53 | 317 | 3.0 | 8.0 | 0.00 | 0.20 | 0.05 | 86 | 1009.4 |
| 20260506203051 | 53 | 310 | 2.0 | 7.0 | 0.00 | 0.20 | 0.05 | 87 | 1009.3 |
| 20260506201604 | 53 | 317 | 2.0 | 9.0 | 0.00 | 0.20 | 0.05 | 87 | 1009.3 |
| 20260506200051 | 54 | 0 | 1.0 | 5.0 | 0.00 | 0.20 | 0.05 | 87 | 1009.0 |
| 20260506194553 | 54 | 330 | 2.0 | 5.0 | 0.00 | 0.20 | 0.05 | 87 | 1008.8 |
| 20260506193051 | 54 | 314 | 1.0 | 5.0 | 0.00 | 0.20 | 0.05 | 86 | 1008.6 |
| 20260506191548 | 54 | 304 | 3.0 | 8.0 | 0.00 | 0.20 | 0.05 | 86 | 1008.4 |
| 20260506190051 | 54 | 333 | 2.0 | 11.0 | 0.00 | 0.20 | 0.05 | 87 | 1008.3 |
| 20260506184554 | 55 | 333 | 0.0 | 7.0 | 0.00 | 0.20 | 0.05 | 89 | 1008.1 |
| 20260506183047 | 55 | 349 | 1.0 | 7.0 | 0.01 | 0.20 | 0.05 | 88 | 1007.8 |
| 20260506181606 | 55 | 308 | 1.0 | 7.0 | 0.03 | 0.20 | 0.05 | 88 | 1007.7 |
| 20260506180048 | 55 | 317 | 2.0 | 7.0 | 0.03 | 0.20 | 0.05 | 88 | 1007.5 |
| 20260506174549 | 56 | 300 | 3.0 | 8.0 | 0.03 | 0.20 | 0.05 | 87 | 1007.5 |
| 20260506173112 | 56 | 275 | 7.0 | 10.0 | 0.03 | 0.18 | 0.03 | 86 | 1007.2 |
| 20260506171556 | 57 | 265 | 5.0 | 13.0 | 0.02 | 0.17 | 0.02 | 83 | 1007.1 |
| 20260506170050 | 59 | 259 | 9.0 | 15.0 | 0.02 | 0.17 | 0.02 | 78 | 1006.9 |
| 20260506164547 | 60 | 252 | 7.0 | 17.0 | 0.01 | 0.16 | 0.01 | 75 | 1006.6 |
| 20260506163102 | 63 | 237 | 4.0 | 8.0 | 0.00 | 0.14 | 0.00 | 66 | 1006.2 |
| 20260506161546 | 63 | 208 | 4.0 | 9.0 | 0.00 | 0.14 | 0.00 | 64 | 1006.1 |
| 20260506160046 | 64 | 205 | 2.0 | 6.0 | 0.00 | 0.14 | 0.00 | 64 | 1006.1 |
| 20260506154552 | 64 | 266 | 4.0 | 9.0 | 0.00 | 0.14 | 0.00 | 63 | 1006.3 |
| 20260506153048 | 64 | 252 | 1.0 | 11.0 | 0.00 | 0.14 | 0.00 | 62 | 1006.4 |
| 20260506151549 | 64 | 287 | 2.0 | 12.0 | 0.00 | 0.14 | 0.00 | 63 | 1006.3 |
| 20260506150055 | 64 | 217 | 5.0 | 11.0 | 0.00 | 0.14 | 0.00 | 61 | 1006.3 |
| 20260506144550 | 63 | 248 | 6.0 | 12.0 | 0.00 | 0.21 | 0.00 | 62 | 1006.0 |
| 20260506143051 | 64 | 252 | 6.0 | 14.0 | 0.00 | 0.21 | 0.00 | 61 | 1006.0 |
| 20260506141553 | 64 | 246 | 6.0 | 16.0 | 0.00 | 0.21 | 0.00 | 59 | 1006.0 |
| 20260506140058 | 64 | 187 | 7.0 | 16.0 | 0.00 | 0.21 | 0.00 | 58 | 1006.0 |
| 20260506134545 | 65 | 240 | 8.0 | 16.0 | 0.00 | 0.23 | 0.00 | 61 | 1005.9 |
| 20260506133047 | 64 | 277 | 9.0 | 14.0 | 0.00 | 0.23 | 0.00 | 63 | 1006.1 |
| 20260506131545 | 64 | 231 | 9.0 | 13.0 | 0.00 | 0.23 | 0.00 | 63 | 1006.0 |
| 20260506130054 | 65 | 237 | 6.0 | 15.0 | 0.00 | 0.23 | 0.00 | 62 | 1006.1 |
| 20260506124550 | 64 | 272 | 6.0 | 15.0 | 0.00 | 0.23 | 0.00 | 65 | 1006.1 |
| 20260506123050 | 64 | 223 | 6.0 | 15.0 | 0.00 | 0.23 | 0.00 | 64 | 1006.0 |
| 20260506121547 | 62 | 281 | 5.0 | 11.0 | 0.00 | 0.23 | 0.00 | 66 | 1006.2 |
| 20260506120106 | 63 | 261 | 6.0 | 13.0 | 0.00 | 0.23 | 0.00 | 65 | 1006.2 |
| 20260506114558 | 62 | 264 | 9.0 | 14.0 | 0.00 | 0.23 | 0.00 | 64 | 1006.4 |